Погода в Лос-Анхелесе

Чили     37°28′51″S   72°20′55″W
темп.,
°C
ветер,
м/с
пор.,
м/с
влажн.,
%
обл.,
%
осадки,
мм/ч
давл.,
гПа
погр.,
м
8 марта, пн
пн800:00+17ю5117133 0.0 1018431
03:00+14ююз4117858 0.0 1017377
06:00+12ююз411879 0.0 1016327
09:00+14ю511764 0.0 1016359
12:00+23ююз593614 0.0 1014553
15:00+31ююз571734 0.0 1011740
18:00+33ююз441127 0.0 1010994
21:00+22ю372313 0.0 1012112
9 марта, вт
вт900:00+15ю23470 0.0 101469
03:00+12ю12620 0.0 101322
06:00+11ююв12640 0.0 101222
09:00+14ююз11480 0.0 101256
12:00+28з11205 0.0 1011537
15:00+33зсз34915 0.0 10101633
18:00+32сз56869 0.0 10101509
21:00+20ссз242983 0.0 1013108
10 марта, ср
ср1000:00+14ссв247169 0.0 1014107
03:00+12ссв279737 0.0 1014184
06:00+13св259753 0.0 1013142
09:00+16ссв368565 0.0 1014249
12:00+22ссз4755100 0.0 10141113
15:00+21зсз5972100 1.2 10161021
18:00+22зсз3557100 0.9 10161277
21:00+15ю2588100 1.0 1018144
11 марта, чт
чт1100:00+12ююз229522 0.0 101771
03:00+11ю259711 0.0 1017130
06:00+10ююз389623 0.0 1017230
09:00+11ююз497951 0.0 1017363
12:00+20ююз47400 0.0 1016760
15:00+25ююз45230 0.0 10141135
18:00+26ююз45180 0.0 10131288
21:00+18ююз411370 0.0 1015513
12 марта, пт
пт1200:00+14ююз411610 0.0 1016437
03:00+11ю310810 0.0 1015327
06:00+10ю310890 0.0 1014296
09:00+11ю48780 0.0 1014273
12:00+22ююз35360 0.0 1012437
15:00+31юз33170 0.0 1011913
18:00+32юз321410 0.0 10101681
21:00+20ююз123643 0.0 101232